This demonstration page uses our WeatherBlox Daily Observations layout. Learn more.

Left ArrowRight Arrow

39.01783, -85.05884

Hourly Observations for December 19, 2017

Temp ( °F °C ) Dew Point ( °F °C ) Humidity (%) Winds ( mph kmh ) Pressure ( in mb ) Visibility ( mi km ) Precip ( " mm )
12:01 am 00:01 Cloudy 46 7.8 43 6.1 89 89 SW 12 19 30.06 1018 10 16 0.00 0.00
12:52 am 00:52 Mostly Cloudy 46 7.8 43 6.1 89 89 SW 12 19 30.04 1017 10 16 0.00 0.00
1:52 am 01:52 Cloudy 46 7.8 42 5.6 86 86 SW 12 19 30.05 1018 10 16 0.00 0.00
2:52 am 02:52 Cloudy 46 7.8 42 5.6 86 86 SW 12 19 30.06 1018 10 16 0.00 0.00
3:52 am 03:52 Cloudy 46 7.8 41 5 83 83 SW 10 17 30.06 1018 10 16 0.00 0.00
4:52 am 04:52 Cloudy 45 7.2 42 5.6 90 90 SW 7 11 30.05 1018 10 16 0.00 0.00
5:48 am 05:48 Cloudy 45 7 43 6 93 93 SW 12 19 30.09 1019 8 13 0.00 0.00
5:52 am 05:52 Cloudy 45 7.2 42 5.6 90 90 SW 12 19 30.06 1018 8 13 0.00 0.00
6:52 am 06:52 Cloudy 44 6.7 42 5.6 93 93 SSW 13 20 30.05 1018 10 16 0.00 0.00
7:30 am 07:30 Cloudy 44 6.7 42 5.6 93 93 SW 9 15 30.09 1019 10 16 0.00 0.00
7:52 am 07:52 Cloudy 44 6.7 42 5.6 93 93 SW 8 13 30.05 1018 7 11 0.00 0.00
8:52 am 08:52 Cloudy 44 6.7 42 5.6 93 93 SW 10 17 30.06 1018 10 16 0.00 0.00
9:52 am 09:52 Cloudy 45 7.2 42 5.6 90 90 SW 10 17 30.06 1018 10 16 0.00 0.00
10:52 am 10:52 Cloudy with Mist and Fog 45 7.2 42 5.6 90 90 SW 13 20 30.05 1018 5 8 0.00 0.00
11:52 am 11:52 Cloudy with Mist and Fog 45 7.2 42 5.6 90 90 SW 10 17 30.04 1017 6 10 0.00 0.00
12:52 pm 12:52 Cloudy with Mist and Fog 46 7.8 42 5.6 86 86 WSW 13 20 30.02 1017 6 10 0.00 0.00
1:52 pm 13:52 Cloudy with Haze 47 8.3 42 5.6 83 83 WSW 9 15 30.01 1016 6 10 0.00 0.00
2:52 pm 14:52 Mostly Cloudy 48 8.9 43 6.1 83 83 WSW 8 13 30.00 1016 7 11 0.00 0.00
3:29 pm 15:29 Cloudy 48 8.9 43 6.1 83 83 W 6 9 30.00 1016 7 11 0.00 0.00
3:52 pm 15:52 Cloudy 49 9.4 44 6.7 83 83 WSW 5 7 29.99 1016 7 11 0.00 0.00
4:52 pm 16:52 Cloudy 48 8.9 44 6.7 86 86 WSW 5 7 29.99 1016 7 11 0.00 0.00
5:52 pm 17:52 Cloudy 45 7.2 43 6.1 93 93 WNW 5 7 30.01 1016 8 13 0.00 0.00
6:52 pm 18:52 Cloudy 46 7.8 43 6.1 89 89 WSW 3 6 30.03 1017 7 11 0.00 0.00
7:52 pm 19:52 Cloudy with Mist and Fog 44 6.7 43 6.1 96 96 W 7 11 30.06 1018 5 8 0.00 0.00
8:36 pm 20:36 Cloudy with Mist and Fog 44 6.7 43 6.1 96 96 WSW 5 7 30.09 1019 5 8 0.00 0.00
8:52 pm 20:52 Cloudy with Mist and Fog 45 7.2 43 6.1 93 93 WSW 6 9 30.07 1018 5 8 0.00 0.00
9:36 pm 21:36 Cloudy with Mist and Fog 43 6.1 42 5.6 97 97 WSW 3 6 30.09 1019 5 8 0.00 0.00
9:52 pm 21:52 Cloudy with Mist and Fog 43 6.1 42 5.6 97 97 W 3 6 30.07 1018 5 8 0.00 0.00
10:52 pm 22:52 Cloudy with Mist and Fog 43 6.1 42 5.6 97 97 W 5 7 30.07 1018 4 6 0.00 0.00
11:52 pm 23:52 Cloudy with Mist and Fog 43 6.1 42 5.6 97 97 W 5 7 30.06 1018 4 6 0.00 0.00

Powered by AerisWeather